Regional Weather Roundup
Issued by NWS Burlington, VT

Home | Current Version | Previous Version | Text Only | Print | Product List | Glossary On
Versions: 1 2 3 4 5 6 7 8 9 10 11 12 13 14 15 16 17 18 19 20 21 22 23 24 25 26 27 28 29 30 31 32 33 34 35 36 37 38 39 40 41 42 43 44 45 46 47 48 49 50
000
ASUS41 KBTV 130030
RWRBTV
VERMONT REGIONAL WEATHER ROUNDUP
NATIONAL WEATHER SERVICE BURLINGTON VT
700 PM EST TUE DEC 12 2017

NOTE: "FAIR" INDICATES FEW OR NO CLOUDS BELOW 12,000 FEET WITH NO
SIGNIFICANT WEATHER AND/OR OBSTRUCTIONS TO VISIBILITY.

* THESE REPORTS ARE NOT UNDER NWS QUALITY CONTROL AND/OR DO NOT
  REPORT WEATHER SUCH AS PRECIPITATION AND FOG.

VTZ001>019-130100-
_____VERMONT_____


CITY           SKY/WX    TMP DP  RH WIND       PRES   REMARKS
BURLINGTON     LGT SNOW  32  31  96 CALM      29.37F VSB 1
6HR MIN TEMP:  31; 6HR MAX TEMP:  32; 6HR PCP:  0.15;

MONTPELIER     LGT SNOW  27  27 100 CALM      29.37F FOG
6HR MIN TEMP:  27; 6HR MAX TEMP:  28; 6HR PCP:  0.19;

MORRISVILLE    LGT SNOW  27  27 100 CALM      29.36F FOG
6HR MIN TEMP:  26; 6HR MAX TEMP:  28; 6HR PCP:  0.01;

ST. JOHNSBURY*   N/A     28  28 100 MISG      29.34F
6HR MIN TEMP:  26; 6HR MAX TEMP:  28; 6HR PCP:  0.31;

LYNDONVILLE*   LGT SNOW  28  28  99 CALM      29.34F VSB 3/4
6HR MIN TEMP:  28; 6HR MAX TEMP:  28;

MIDDLEBURY*    LGT SNOW  32  32  99 CALM      29.37S
6HR MIN TEMP:  32; 6HR MAX TEMP:  35; 6HR PCP:  0.03;

RUTLAND*       LGT SNOW  30  28  93 CALM      29.36S FOG
6HR MIN TEMP:  30; 6HR MAX TEMP:  32; 6HR PCP: TRACE;

SPRINGFIELD    LGT SNOW  28  28 100 CALM      29.36F FOG
6HR MIN TEMP:  28; 6HR MAX TEMP:  30; 6HR PCP:  0.26;

HIGHGATE*      LGT SNOW  22  22  98 NW5       29.40R WCI  16
6HR MIN TEMP:  24; 6HR MAX TEMP:  32;

NEWPORT*       LGT SNOW  27  26  99 CALM      29.35F
6HR MIN TEMP:  25; 6HR MAX TEMP:  27;

BENNINGTON     LGT SNOW  32  28  85 W8        29.39R FOG     WCI  25
6HR MIN TEMP:  32; 6HR MAX TEMP:  38; 6HR PCP:  0.20;

ISLAND POND*     N/A     25 N/A N/A CALM        N/A
GALLUP MILLS*    N/A     25 N/A N/A MISG        N/A
UNION VILLAGE*   N/A     28 N/A N/A MISG        N/A
MT. MANSFIELD*   N/A     25 N/A N/A W21         N/A  WCI  10

_____LAKE CHAMPLAIN_____


CITY           SKY/WX    TMP DP  RH WIND       PRES   REMARKS
BURTON ISLAND*   N/A     28  28 100 N9          N/A  WCI  20
COLCHESTER RF*   N/A     34  32  93 NW10G18     N/A  WCI  26
DIAMOND ISL*     N/A     34  34 100 N2          N/A

$$

NYZ007-026>031-035-052-083-087-130100-
_____NORTHERN NEW YORK_____


CITY           SKY/WX    TMP DP  RH WIND       PRES   REMARKS
PLATTSBURGH    LGT SNOW  28  26  92 N9        29.40R VSB 3/4 WCI  19
6HR MIN TEMP:  29; 6HR MAX TEMP:  34; 6HR PCP:  0.04;

SARANAC LAKE   LGT SNOW  21  19  92 W12       29.36S FOG     WCI   9
6HR MIN TEMP:  23; 6HR MAX TEMP:  30; 6HR PCP:  0.03;

MASSENA        LGT SNOW  20  18  92 W5        29.50S FOG     WCI  13
6HR MIN TEMP:  19; 6HR MAX TEMP:  20; 6HR PCP:  0.03;

OGDENSBURG*    FAIR      19  17  92 W7        29.51S WCI  10
6HR MIN TEMP:  19; 6HR MAX TEMP:  24;

POTSDAM*       CLOUDY    18  16  93 W10       29.49R WCI   6
STARK FALLS*     N/A     19 N/A N/A SW9         N/A  WCI   9
WATERTOWN      LGT SNOW  21  20  96 W5        29.53R FOG     WCI  15
6HR MIN TEMP:  21; 6HR MAX TEMP:  25; 6HR PCP:  0.01;

FT DRUM        FLURRIES  19  16  86 N3        29.48F
6HR MIN TEMP:  19; 6HR MAX TEMP:  28; 6HR PCP: TRACE;

ALBANY         CLOUDY    30  20  66 W20G28    29.46R WCI  17
6HR MIN TEMP:  30; 6HR MAX TEMP:  36; 6HR PCP:  0.12;

GLENS FALLS    FLURRIES  33  29  85 NW12G22   29.40S WCI  24
6HR MIN TEMP:  30; 6HR MAX TEMP:  33; 6HR PCP:  0.05;


$$
NHZ002-005-011-130100-
_____NEW HAMPSHIRE_____


CITY           SKY/WX    TMP DP  RH WIND       PRES   REMARKS
LEBANON        LGT SNOW  29  27  92 CALM      29.35F FOG
6HR MIN TEMP:  28; 6HR MAX TEMP:  29; 6HR PCP:  0.27;

KEENE          LGT SNOW  30  30 100 CALM      29.35S FOG
6HR MIN TEMP:  31; 6HR MAX TEMP:  33; 6HR PCP:  0.02;

MT WASHINGTON  SNOW      18  18 100 SE43G55     N/A  VSB 0   WCI  -5
6HR MIN TEMP:  15; 6HR MAX TEMP:  20; 6HR PCP:  0.64;

PLYMOUTH       LGT SNOW  26  25  96 CALM      29.35F VSB 3/4
6HR MIN TEMP:  24; 6HR MAX TEMP:  26; 6HR PCP:  0.36;

WHITEFIELD     LGT SNOW  26  25  96 NE10      29.31F VSB 3/4 WCI  16
6HR MIN TEMP:  27; 6HR MAX TEMP:  33; 6HR PCP:  0.08;


$$

_____REGIONAL QUEBEC LOCATIONS_____


CITY           SKY/WX    TMP DP  RH WIND       PRES   REMARKS
MONTREAL       LGT SNOW  18  14  86 N10G17    29.44S WCI   6
QUEBEC CITY    LGT SNOW  18  14  86 NE24G35   29.53F VSB 5/8 WCI   0
SHERBROOKE     SNOW      25  23  93 N3        29.36F VSB 3/8

_____REGIONAL ONTARIO LOCATIONS_____


CITY           SKY/WX    TMP DP  RH WIND       PRES   REMARKS
OTTAWA         LGT SNOW  18  14  86 NW9       29.49S WCI   6

______KEY______
VSB  - VISIBILITY IN MILES
WCI  - WIND CHILL INDEX
HX   - HEAT INDEX
$$
NNNN




USA.gov is the U.S. government's official web portal to all federal, state and local government web resources and services.